{"data":{"norad_id":53433,"intl_designator":"2022-097AX","name":"STARLINK-4549","alt_names":[],"object_type":"PAYLOAD","status":"ACTIVE","operator":null,"country":"US","launch_date":"2022-08-10","launch_site_code":"AFETR","launch_vehicle":null,"mission":null,"orbit_class":"UNKNOWN","rcs_meters":null,"size_class":null,"mass_kg":null,"dimensions":null,"purposes":["comms"],"wikipedia_slug":null,"has_3d_model":false,"image_url":null,"decayed_at":null,"tle_current":{"epoch":"2026-09-18T22:00:06.392160Z","epoch_age_seconds":212203,"freshness":"STALE","line1":"1 53433U 22097AX  26261.91674065 -.00000015  00000+0  10470-4 0  9995","line2":"2 53433  53.1595 307.0034 0001173  80.5326 279.5809 15.35399228228066","mean_motion":15.35399228,"eccentricity":0.0001173,"inclination_deg":53.1595,"raan_deg":307.0034,"arg_perigee_deg":80.5326,"mean_anomaly_deg":279.5809,"bstar":1.047e-5,"rev_number":22806,"period_min":93.786682560453,"perigee_km":458.93285242062,"apogee_km":460.53701717652,"semimajor_km":6837.8719347986,"source":"CELESTRAK","updated_at":"2026-09-20T09:00:40.232122Z"}}}